Location: Givhans Ferry State Park
(33.0284°N, 80.3868°W)
Time: 04:54:49
(UTC-04:00)

Daily predictions for brighter satellites

Satellite Brightness Start Highest point End
(mag) Time Altitude Azimuth Time Altitude Azimuth Time Altitude Azimuth
CZ-2D R/B 4.3 02:45:21 10° NNE 02:47:20 21° NE 02:47:20 21° NE
SL-16 R/B 3.8 02:51:49 35° NE 02:51:49 35° NE 02:56:19 10° N
Cosmos 1980 Rocket 4.3 02:53:34 10° N 02:57:47 21° ENE 02:58:11 21° ENE
Cosmos 2082 Rocket 4.0 03:06:40 27° NNE 03:06:40 27° NNE 03:09:09 10° NNE
ATLAS 3B R/B 4.1 03:16:15 30° ESE 03:16:15 30° ESE 03:21:58 10° NE
Resurs 1-4 Rocket 3.7 03:20:55 10° NNE 03:23:33 31° NNE 03:23:33 31° NNE
Cosmos 2279 Rocket 4.4 03:36:56 57° ENE 03:36:56 57° ENE 03:42:26 10° NNE
Cosmos 1833 Rocket 4.4 03:41:36 23° NNW 03:41:36 23° NNW 03:44:19 10° N
USA 215 4.0 03:39:30 10° ENE 03:45:35 41° SE 03:45:35 41° SE
Cosmos 2026 Rocket 4.2 03:44:02 10° N 03:49:31 68° N 03:49:31 68° N
SEDSat Delta rocket 4.3 03:53:46 57° ESE 03:53:46 57° ESE 03:59:06 10° E
Cosmos 1898 Rocket 4.4 03:47:33 10° N 03:52:29 46° ENE 03:52:29 46° ENE
Cosmos 724 4.5 04:05:15 62° N 04:05:15 62° N 04:10:12 10° NNE
Timation 2 Rocket 3.8 04:07:41 79° ESE 04:07:41 79° ESE 04:13:40 10° NNE
ARIANE 5 R/B 3.4 04:10:03 10° N 04:13:42 40° NNW 04:13:42 40° NNW
Cosmos 990 Rocket 4.5 04:13:04 10° N 04:18:08 56° ENE 04:20:38 29° SE
USA 238 DEB 3.5 04:17:41 70° SW 04:18:33 84° WNW 04:25:30 10° NNE
USA 238 3.5 04:17:45 70° SW 04:18:39 85° WNW 04:25:36 10° NNE
Cosmos 1814 Rocket 4.1 04:20:49 64° NNW 04:20:49 64° NNW 04:25:19 10° NNE
DNEPR-1 R/B 4.1 04:26:52 52° E 04:26:52 52° E 04:30:40 10° NE
Cosmos 1655 Rocket 3.9 04:20:34 10° N 04:26:55 74° W 04:27:55 62° SSW
CZ-2D R/B 3.8 04:25:58 10° NNW 04:28:39 20° NW 04:28:39 20° NW
Meteor 1-21 4.1 04:33:26 69° SW 04:34:00 75° W 04:39:38 10° N
SL-16 R/B 4.0 04:36:53 21° WNW 04:36:53 21° WNW 04:39:26 10° NW
Delta 2 Rocket 4.4 04:34:40 50° S 04:35:03 51° SSE 04:40:29 10° E
Cosmos 2298 Rocket 4.1 04:33:34 10° NNW 04:38:54 74° ENE 04:44:10 10° SSE
Cosmos 1980 Rocket 3.2 04:36:38 10° NW 04:39:51 31° WNW 04:39:51 31° WNW
Meteor 2-11 Rocket 4.4 04:41:35 35° S 04:44:24 86° E 04:50:34 10° N
Cosmos 841 Rocket 3.5 04:48:23 53° W 04:48:45 55° WNW 04:53:51 10° N
ADEOS II 2.0 04:45:47 10° N 04:51:01 71° WNW 04:52:21 49° SW
ADEOS 4.1 04:48:20 10° N 04:53:07 38° WNW 04:53:17 38° WNW
Cosmos 1602 Rocket 3.4 04:53:48 53° S 04:54:48 88° E 04:59:08 10° N
SL-16 R/B 2.4 04:49:28 10° NNW 04:55:09 71° ENE 05:00:47 10° SSE
NOSS 3-2 (C) 3.4 04:53:13 35° SSW 04:55:49 74° ESE 05:02:06 10° NNE
CZ-4B R/B 4.2 04:53:20 10° NNE 04:57:12 38° E 05:00:02 15° SSE
OAO 3 Rocket 3.8 04:59:23 35° S 04:59:23 35° S 05:02:58 10° SE
Cosmos 2058 Rocket 3.7 04:54:43 10° NNW 04:58:12 40° WNW 04:58:12 40° WNW
Cosmos 1470 3.7 04:58:31 10° N 05:02:22 48° E 05:06:12 10° SSE
Cosmos 2228 4.2 04:58:59 10° NNW 05:01:27 27° NW 05:01:27 27° NW
Cosmos 540 Rocket 3.4 05:02:52 40° SW 05:04:42 71° WNW 05:09:50 10° NNE
ATLAS 3B R/B 3.2 05:03:31 32° WSW 05:06:26 47° NW 05:13:09 10° NNE
Cosmos 1626 Rocket 3.6 05:06:34 49° WSW 05:07:16 55° W 05:11:31 10° N
Cosmos 2322 Rocket 2.1 05:04:59 10° NNW 05:10:38 89° W 05:16:15 10° SSE
NOSS 3-2 (A) 3.5 05:10:12 33° WSW 05:12:43 57° NW 05:18:58 10° NNE
Cosmos 1833 4.2 05:10:34 24° SSW 05:14:12 86° WNW 05:20:01 10° NNE
Cosmos 292 Rocket 4.4 05:13:38 33° W 05:14:36 37° WNW 05:19:04 10° N
Cosmos 1707 2.7 05:13:05 25° S 05:15:13 84° E 05:19:07 10° N
Cosmos 1378 3.0 05:14:36 44° SW 05:15:36 65° W 05:19:19 10° N
SJ 16-02 2.1 05:13:56 10° N 05:18:16 55° ENE 05:22:35 10° SSE
BREEZE-M DEB (TANK) 3.7 05:18:58 22° SSW 05:21:28 48° SE 05:24:54 10° ENE
MOS 1-B 4.3 05:16:55 10° NNE 05:22:45 88° W 05:28:33 10° SSW
ATLAS CENTAUR R/B 4.2 05:20:15 10° N 05:23:52 24° NE 05:27:39 10° ESE
CENTAUR R/B 3.1 05:21:34 10° S 05:27:04 51° ESE 05:33:16 10° NE
USA 215 3.7 05:22:22 10° NNE 05:28:34 47° NW 05:32:57 19° WSW
H-II Stage 2 3.7 05:30:22 23° WSW 05:33:31 61° SSE 05:59:02 10° E
Meteor 1-31 Rocket 3.5 05:32:07 10° NNE 05:35:54 52° E 05:39:37 10° S
CZ-4B R/B 3.9 05:30:43 10° NNE 05:36:09 57° E 05:41:28 10° S
Cosmos 1953 2.6 05:32:59 10° NNW 05:36:51 44° W 05:40:42 10° SSW
Cosmos 1553 Rocket 4.3 05:30:43 10° S 05:37:04 75° E 05:43:29 10° N
CZ-3C R/B 3.0 05:34:42 12° SSW 05:37:17 20° SSE 05:44:43 10° ESE
PSLV R/B 3.7 05:33:57 10° N 05:37:44 62° WNW 05:40:51 14° SSW
Cosmos 1400 Rocket 4.2 05:34:20 10° SSE 05:37:58 38° E 05:41:39 10° NNE
SEDSat Delta rocket 4.0 05:33:53 17° W 05:39:03 70° S 05:45:50 10° ESE
Cosmos 44 3.8 05:34:26 10° NW 05:39:27 44° WSW 05:44:33 10° S
Cosmos 783 Rocket 4.5 05:36:21 10° SSW 05:41:32 88° WNW 05:46:46 10° NNE
IDEFIX/ARIANE 42P 4.1 05:42:27 10° NNE 05:47:16 37° E 05:52:05 10° SSE
Cosmos 1125 Rocket 3.5 05:42:10 10° NNW 05:47:30 85° WSW 05:52:45 10° SSE
Meteor 1-28 Rocket 3.7 05:44:17 10° SSE 05:47:57 61° ENE 05:51:40 10° N
Cosmos 2292 Rocket 4.2 05:45:45 10° N 05:48:59 41° E 05:51:49 10° SSE
Aureole 2 Rocket 2.4 05:46:30 10° NNW 05:50:14 80° WSW 05:53:40 10° SSE
PSLV R/B 4.3 05:49:55 15° WNW 05:51:56 30° NNW 05:54:38 10° NE
Cosmos 2322 4.3 05:47:23 10° NNW 05:53:03 63° ENE 05:58:43 10° SSE
Meteor PRIRODA 3.6 05:51:32 10° N 05:55:14 80° WNW 05:58:56 10° SSW
CZ-4B R/B 3.8 05:51:47 10° N 05:55:39 86° W 05:59:40 10° SSW
Cosmos 1825 Rocket 3.7 05:53:08 10° SSW 05:57:19 50° W 06:01:32 10° N
CZ-4B DEB 4.2 05:51:55 10° N 05:57:28 75° WNW 06:02:57 10° SSW
ERBS 3.5 05:55:23 15° W 05:57:34 29° NW 06:00:35 10° NNE
Cosmos-2242 4.3 05:53:36 10° N 05:57:41 44° E 06:01:44 10° SSE
Okean O Rocket 1.6 05:54:01 10° N 05:58:21 66° WNW 06:02:37 10° SSW
BREEZE-M DEB 3.7 05:59:27 17° WSW 06:00:59 54° NW 06:03:34 10° NE
CRYOSAT 2 4.4 05:56:40 10° S 06:01:24 56° W 06:06:11 10° NNW
Cosmos 44 Rocket 4.0 06:03:48 10° NW 06:08:27 34° WSW 06:13:05 10° S
Meteor 2-5 Rocket 3.8 06:03:53 10° SSW 06:09:16 54° W 06:14:43 10° N
Cosmos 372 Rocket 4.3 06:06:22 10° NNW 06:11:17 44° WSW 06:16:09 10° S
Cosmos 192 4.3 06:10:19 10° SSW 06:15:12 72° WNW 06:20:06 10° NNE
Delta 2 Rocket 4.2 06:12:05 10° W 06:17:50 77° N 06:23:11 10° ENE
PAYLOAD A 4.4 06:15:39 10° NNE 06:21:00 75° ESE 06:26:08 10° S
S3M 4.2 06:15:41 10° SSW 06:21:38 52° W 06:27:35 10° N
Cosmos 1745 Rocket 4.0 06:17:09 10° N 06:23:22 77° W 06:29:36 10° S
